{"data":{"norad_id":46914,"epoch":"2026-09-20T05:23:35.716416Z","epoch_age_seconds":97516,"freshness":"FRESH","line1":"1 46914U 20081K   26263.22471894  .00005420  00000+0  21154-3 0  9997","line2":"2 46914  36.9011 203.3544 0004720 323.4155  36.6271 15.25679131326706","mean_motion":15.25679131,"eccentricity":0.000472,"inclination_deg":36.9011,"raan_deg":203.3544,"arg_perigee_deg":323.4155,"mean_anomaly_deg":36.6271,"bstar":0.00021154,"rev_number":32670,"period_min":94.384197223446,"perigee_km":485.50572132472,"apogee_km":491.98805971737,"semimajor_km":6866.883890521,"source":"CELESTRAK","updated_at":"2026-09-20T09:00:14.801573Z"}}